This is the latest recevied weather packets stored in our database for station/object K4AVM-13. If no packets are shown the sender has not sent any weather packets the latest 10 day(s).
| Time | Temp. | Humidity | Pressure | Rain* | Wind** | Luminosity | Snow |
|---|---|---|---|---|---|---|---|
| 1778103840 | 22.22° C | 76% | 1011.1 hPa | 0 mm | - | 139 W/m² | - |
| 1778103537 | 22.78° C | 76% | 1011.1 hPa | 0 mm | - | 149 W/m² | - |
| 1778103235 | 22.22° C | 76% | 1011.2 hPa | 0 mm | - | 156 W/m² | - |
| 1778102932 | 22.22° C | 76% | 1011.5 hPa | 0 mm | - | 181 W/m² | - |
| 1778102628 | 22.22° C | 77% | 1011.3 hPa | 0 mm | - | 149 W/m² | - |
| 1778102323 | 22.22° C | 78% | 1011.2 hPa | 0 mm | - | 154 W/m² | - |
| 1778102019 | 22.22° C | 78% | 1011.3 hPa | 0 mm | - | 149 W/m² | - |
| 1778101716 | 22.22° C | 78% | 1011.3 hPa | 0 mm | - | 180 W/m² | - |
| 1778101413 | 22.22° C | 78% | 1011.2 hPa | 0 mm | - | 209 W/m² | - |
| 1778101111 | 22.78° C | 77% | 1011.2 hPa | 0 mm | - | 204 W/m² | - |
| 1778100806 | 22.78° C | 78% | 1011.1 hPa | 0 mm | - | 271 W/m² | - |
| 1778100503 | 22.78° C | 78% | 1011.3 hPa | 0 mm | - | 284 W/m² | - |
| 1778100200 | 21.67° C | 81% | 1011.1 hPa | 0 mm | - | 250 W/m² | - |
| 1778099898 | 21.67° C | 81% | 1011.1 hPa | 0 mm | - | 156 W/m² | - |
| 1778099595 | 21.67° C | 82% | 1011.2 hPa | 0 mm | - | 110 W/m² | - |
| 1778099292 | 21.67° C | 82% | 1011.1 hPa | 0 mm | - | 130 W/m² | - |
| 1778098989 | 21.67° C | 82% | 1011.2 hPa | 0 mm | - | 116 W/m² | - |
| 1778098685 | 21.11° C | 82% | 1011.3 hPa | 0 mm | - | 147 W/m² | - |
| 1778098383 | 21.11° C | 81% | 1011.2 hPa | 0 mm | - | 151 W/m² | - |
| 1778098080 | 21.11° C | 83% | 1011.2 hPa | 0 mm | - | 165 W/m² | - |
| 1778097775 | 21.11° C | 83% | 1010.9 hPa | 0 mm | - | 158 W/m² | - |
| 1778097472 | 20.56° C | 83% | 1010.4 hPa | 0 mm | - | 158 W/m² | - |
| 1778097169 | 20.56° C | 83% | 1010.4 hPa | 0 mm | - | 149 W/m² | - |
| 1778096866 | 20.56° C | 84% | 1010.5 hPa | 0 mm | - | 136 W/m² | - |
| 1778096562 | 20.56° C | 84% | 1010.5 hPa | 0 mm | - | 149 W/m² | - |
* Rain latest hour (hover to see other rain measurements)
** Current wind speed in m/s (hover to see current wind gust speed)